Regional Weather Roundup
Issued by NWS

Home | Current Version | Previous Version | Text Only | Print | Product List | Glossary Off
Versions: 1 2 3 4 5 6 7 8 9 10 11 12 13 14 15 16 17 18 19 20 21 22 23 24 25 26 27 28 29 30 31 32 33 34 35 36 37 38 39 40 41 42 43 44 45 46 47 48 49 50

000
ASUS43 KOAX 142102
RWRNE

WEATHER ROUNDUP FOR NEBRASKA
NATIONAL WEATHER SERVICE OMAHA NE
300 PM CST THU DEC 14 2017

NOTES: SATELLITE DATA IS BEING USED TO AUGMENT CLOUD COVER ABOVE
       12000 FEET.
       "FAIR" INDICATES FEW OR NO CLOUDS BELOW 12,000 FEET WITH NO
       SIGNIFICANT WEATHER AND/OR OBSTRUCTIONS TO VISIBILITY.


NEZ001>004-019>022-054>056-142200-
NEBRASKA PANHANDLE

CITY           SKY/WX    TMP DP  RH WIND       PRES   REMARKS
SCOTTSBLUFF    CLOUDY    35  20  54 N28G36    30.21F WCI  22
ALLIANCE       CLOUDY    30  24  78 N20       30.18R WCI  17
CHADRON        CLOUDY    36  20  52 N9        30.21R WCI  29
GORDON         CLOUDY    32  26  80 N15G23    30.17R WCI  22
KIMBALL        CLOUDY    34  17  49 N22G30    30.18F WCI  22
SIDNEY         CLOUDY    33  22  63 NW23G31   30.18S WCI  21
$$

NEZ057>060-069>072-079>082-142200-
SOUTHWEST NEBRASKA

CITY           SKY/WX    TMP DP  RH WIND       PRES   REMARKS
NORTH PLATTE   CLOUDY    39  23  52 N24G33    30.14R WCI  28
IMPERIAL       CLOUDY    35  31  85 N16       30.17R WCI  25
LEXINGTON      CLOUDY    39  29  67 N25       30.12R WCI  28
MCCOOK         MOSUNNY   40  22  48 N24G32    30.14R WCI  29
OGALLALA       CLOUDY    37  29  73 NW14      30.17R WCI  28
$$

NEZ005>010-023>029-035>040-094-142200-
NORTH CENTRAL NEBRASKA

CITY           SKY/WX    TMP DP  RH WIND       PRES   REMARKS
VALENTINE      CLOUDY    34  30  85 N15G23    30.14R WCI  24
AINSWORTH      CLOUDY    32  31  95 N22       30.12R WCI  20
BROKEN BOW     FLURRIES  36  34  92 N24G30    30.10R WCI  24
O`NEILL        LGT RAIN  34  34  99 NW14      30.09R WCI  25
ORD            LGT RAIN  36  32  85 N18G26    30.09R WCI  26
THEDFORD       CLOUDY    35  30  82 NW20G30   30.13S WCI  24
$$

NEZ041-046>049-061>064-073>077-083>087-142200-
SOUTH CENTRAL NEBRASKA

CITY           SKY/WX    TMP DP  RH WIND       PRES   REMARKS
GRAND ISLAND   LGT RAIN  37  36  96 N15G23    30.09R WCI  28
AURORA         RAIN      37  35  94 N10       30.08R WCI  29
HASTINGS       LGT RAIN  37  34  89 N17       30.08R WCI  27
HEBRON         LGT RAIN  41  35  77 N8        30.08R
HOLDREGE       CLOUDY    38  31  75 N21G29    30.10R WCI  28
KEARNEY        LGT RAIN  36  33  89 N21G30    30.10R WCI  25
$$

NEZ011>018-030>034-042>045-142200-
NORTHEAST NEBRASKA

CITY           SKY/WX    TMP DP  RH WIND       PRES   REMARKS
NORFOLK        LGT SNOW  35  30  82 NW13      30.05R WCI  26
ALBION         CLOUDY    37  35  91 NW12      30.07R WCI  29
BLAIR          CLOUDY    40  27  58 N9        30.04R WCI  34
COLUMBUS       LGT RAIN  36  33  89 NW10      30.08R WCI  28
FREMONT        CLOUDY    40  27  57 NW10      30.06S WCI  34
TEKAMAH        CLOUDY    40  24  53 N8        30.06S WCI  34
WAYNE          CLOUDY    37  25  60 NW12      30.05S WCI  30
$$

NEZ050>053-065>068-078-088>093-142200-
SOUTHEAST NEBRASKA

CITY           SKY/WX    TMP DP  RH WIND       PRES   REMARKS
LINCOLN        CLOUDY    42  28  57 NW9       30.07S
OMAHA EPPLEY   CLOUDY    41  25  53 N13       30.06R
BEATRICE       CLOUDY    41  32  70 NW13      30.06R
FALLS CITY     CLOUDY    43  25  49 NW10      30.05S
NEBRASKA CITY  CLOUDY    42  27  54 NW8       30.05R
PLATTSMOUTH    PTSUNNY   41  27  57 NW10      30.05S HAZE
$$

NEZ044-045-051>053-067-142200-
OMAHA AREA

CITY           SKY/WX    TMP DP  RH WIND       PRES   REMARKS
OMAHA EPPLEY   CLOUDY    41  25  53 N13       30.06R
BLAIR          CLOUDY    40  27  58 N9        30.04R WCI  34
FREMONT        CLOUDY    40  27  57 NW10      30.06S WCI  34
MILLARD        CLOUDY    42  28  56 NW5       30.06R
OFFUTT AFB     CLOUDY    41  25  53 NW10      30.05S
PLATTSMOUTH    PTSUNNY   41  27  57 NW10      30.05S HAZE
WAHOO          CLOUDY    41  28  60 NW12      30.06R
$$



USA.gov is the U.S. government's official web portal to all federal, state and local government web resources and services.